Location: El Conde
(10.2895°N, 67.2409°W)
Time: 18:57:21
(UTC+00:00)

Timation 2 Rocket - Pass Details

Date: 19 May 2024
Orbit: 905 x 1074 km, 70.0° (Epoch: 12 June)

Event Time Altitude Azimuth Distance (km) Brightness Sun altitude
Rises 23:07:18 0° 352° (N) 3,572 7.4 -6.1°
Reaches altitude 10° 23:09:55 10° 357° (N) 2,611 6.6 -6.7°
Maximum altitude 23:15:43 50° 72° (ENE) 1,137 4.1 -8.0°
Drops below altitude 10° 23:21:26 10° 147° (SSE) 2,580 5.7 -9.3°
Enters shadow 23:22:51 - 150° (SSE) 3,097 6.2 -9.6°
